• Processing (Info)

  • MPEC 2000-R24 : 2000 RV37

    The following Minor Planet Electronic Circular may be linked-to from your own Web pages, but must not otherwise be redistributed electronically.

    A form allowing access to any MPEC is at the bottom of this page.


    Read MPEC 2000-R23 Read MPEC 2000-R25


    M.P.E.C. 2000-R24                                Issued 2000 Sept. 6, 16:53 UT
    
         The Minor Planet Electronic Circulars contain information on unusual
             minor planets and routine data on comets.  They are published
       on behalf of Commission 20 of the International Astronomical Union by the
              Minor Planet Center, Smithsonian Astrophysical Observatory,
                              Cambridge, MA 02138, U.S.A.
    
                 Prepared using the Tamkin Foundation Computer Network
    
                 BMARSDEN@CFA.HARVARD.EDU or GWILLIAMS@CFA.HARVARD.EDU
              URL http://cfa-www.harvard.edu/iau/mpc.html  ISSN 1523-6714
    
                                       2000 RV37
    
    Observations:
         K00R37V* C2000 09 03.26535 23 01 48.05 +06 26 26.7          19.3        704
         K00R37V  C2000 09 03.27800 23 01 45.15 +06 26 23.7          19.1        704
         K00R37V  C2000 09 03.29070 23 01 42.21 +06 26 21.5          19.4        704
         K00R37V  C2000 09 03.30342 23 01 39.35 +06 26 19.3          19.4        704
         K00R37V tC2000 09 04.29530 22 58 02.60 +06 22 44.8                      684
         K00R37V tC2000 09 04.29984 22 58 01.62 +06 22 44.2                      684
         K00R37V  C2000 09 04.34493 22 57 51.51 +06 22 33.3          18.9 R      684
         K00R37V  C2000 09 04.34933 22 57 50.66 +06 22 32.5                      684
         K00R37V 1C2000 09 05.27297 22 54 30.93 +06 18 48.7                      658
         K00R37V 1C2000 09 05.27712 22 54 30.06 +06 18 46.7                      658
         K00R37V 1C2000 09 05.28203 22 54 28.99 +06 18 46.2                      658
         K00R37V  C2000 09 05.72263 22 52 53.42 +06 16 56.2                      344
         K00R37V  C2000 09 05.72399 22 52 53.11 +06 16 55.9                      344
         K00R37V  C2000 09 05.72896 22 52 52.01 +06 16 54.8                      344
         K00R37V  C2000 09 05.73037 22 52 51.72 +06 16 54.4                      344
    
    Observer details:
    344 Bohyunsan Optical Astronomy Observatory.  Observers S.-L. Kim,
        B. C. Lee.  1.8-m f/8 reflector + CCD.
    658 National Research Council of Canada.  Observer D. D. Balam.  1.82-m
        Plaskett reflector + CCD.
    684 Prescott.  Observer P. G. Comba.  0.46-m f/4.5 reflector + CCD.
    704 Lincoln Laboratory ETS, New Mexico.  Observers M. Blythe, F. Shelly,
        M. Bezpalko, M. Elowitz, R. Huber, L. Manguso.  Measurers J. Stuart,
        R. Sayer, J. B. Evans, H. Viggh.  1.0-m f/2.15 reflector + CCD.
    
    Orbital elements:
    2000 RV37
    Epoch 2000 Aug. 24.0 TT = JDT 2451780.5                 Spahr
    M 128.75863              (2000.0)            P               Q
    n   0.93090550     Peri.  210.75158     -0.99001253     +0.03384981
    a   1.0388009      Node   330.24057     +0.05597759     -0.79655929
    e   0.4899090      Incl.   16.00482     -0.12938975     -0.60361204
    P   1.06           H   19.3           G   0.15
    From 15 observations 2000 Sept. 3-5.
    
    Ephemeris:
    2000 RV37                a,e,i = 1.04, 0.49, 16                  q = 0.5299
    Date    TT    R. A. (2000) Decl.     Delta      r     Elong.  Phase     V
    2000 09 03    23 02.77   +06 27.5    0.488    1.486   165.6     9.7    19.2
    2000 09 13    22 28.34   +05 37.9    0.519    1.510   163.0    11.2    19.5
    2000 09 23    22 01.32   +04 30.9    0.576    1.529   149.8    19.3    20.0
    2000 10 03    21 43.55   +03 27.7    0.651    1.541   136.7    26.4    20.5
    2000 10 13    21 34.34   +02 40.5    0.740    1.547   125.2    31.8    20.9
    2000 10 23    21 31.96   +02 13.4    0.835    1.547   115.1    35.6    21.3
    2000 11 02    21 34.85   +02 06.4    0.934    1.541   106.2    38.2    21.6
    2000 11 12    21 41.74   +02 18.7    1.031    1.529    98.3    39.8    21.9
    2000 11 22    21 51.66   +02 48.7    1.125    1.511    91.1    40.8    22.1
    2000 12 02    22 04.01   +03 35.1    1.212    1.486    84.4    41.3    22.2
    
    2001 06 30    02 02.67   -14 14.8    0.365    0.997    76.6    82.6    20.0
    2001 07 10    01 35.62   -13 55.9    0.345    1.080    91.1    70.3    19.6
    2001 07 20    01 02.11   -13 37.8    0.324    1.156   107.5    57.0    19.2
    2001 07 30    00 18.04   -13 22.8    0.307    1.224   126.9    41.6    18.8
    2001 08 09    23 24.30   -12 55.1    0.307    1.286   148.7    24.1    18.4
    2001 08 19    22 29.48   -12 02.0    0.332    1.341   171.1     6.7    18.0
    2001 08 29    21 44.66   -10 52.6    0.385    1.389   168.7     8.2    18.5
    
    Timothy B. Spahr             (C) Copyright 2000 MPC           M.P.E.C. 2000-R24
    

    Read MPEC 2000-R23 Read MPEC 2000-R25


    MPEC number:

    Enter an MPEC number in one of the following forms:

    • 1997-B01 (the full form)
    • J97B01 (the packed version of the full form)
    • B01 (the abbreviated form)